TimeEDT,TemperatureF,Dew PointF,Humidity,Sea Level PressureIn,VisibilityMPH,Wind Direction,Wind SpeedMPH,Gust SpeedMPH,PrecipitationIn,Events,Conditions,WindDirDegrees,DateUTC
12:53 AM,30.9,28.0,89,30.16,10.0,Calm,Calm,-,N/A,,Clear,0,2011-10-30 04:53:00
1:53 AM,30.9,28.0,89,30.17,1.0,Calm,Calm,-,N/A,,Overcast,0,2011-10-30 05:53:00
2:00 AM,30.2,28.4,93,30.19,4.0,Calm,Calm,-,N/A,,Mostly Cloudy,0,2011-10-30 06:00:00
2:49 AM,30.2,28.4,93,30.18,6.0,Calm,Calm,-,N/A,,Scattered Clouds,0,2011-10-30 06:49:00
2:53 AM,30.0,28.0,92,30.17,6.0,Calm,Calm,-,N/A,,Scattered Clouds,0,2011-10-30 06:53:00
3:23 AM,30.2,28.4,93,30.19,1.0,Calm,Calm,-,N/A,,Overcast,0,2011-10-30 07:23:00
3:53 AM,30.0,27.0,88,30.18,1.0,Calm,Calm,-,N/A,,Overcast,0,2011-10-30 07:53:00
4:00 AM,28.4,26.6,93,30.19,4.0,Calm,Calm,-,N/A,,Scattered Clouds,0,2011-10-30 08:00:00
4:23 AM,28.4,26.6,93,30.20,4.0,Calm,Calm,-,N/A,,Mostly Cloudy,0,2011-10-30 08:23:00
4:48 AM,28.4,26.6,93,30.20,0.8,Calm,Calm,-,N/A,,Overcast,0,2011-10-30 08:48:00
4:53 AM,28.9,27.0,92,30.19,0.8,Calm,Calm,-,N/A,,Overcast,0,2011-10-30 08:53:00
5:00 AM,28.4,26.6,93,30.20,4.0,Calm,Calm,-,N/A,,Mostly Cloudy,0,2011-10-30 09:00:00
5:07 AM,28.4,26.6,93,30.20,6.0,Calm,Calm,-,N/A,,Scattered Clouds,0,2011-10-30 09:07:00
5:53 AM,28.9,27.0,92,30.22,5.0,Calm,Calm,-,N/A,,Clear,0,2011-10-30 09:53:00
6:34 AM,28.4,26.6,93,30.24,3.0,Calm,Calm,-,N/A,,Scattered Clouds,0,2011-10-30 10:34:00
6:41 AM,28.4,26.6,93,30.24,0.5,Calm,Calm,-,N/A,Fog,Light Freezing Fog,0,2011-10-30 10:41:00
6:53 AM,28.9,28.0,96,30.25,0.5,Calm,Calm,-,N/A,Fog,Light Freezing Fog,0,2011-10-30 10:53:00
7:53 AM,28.9,28.0,96,30.27,0.5,Calm,Calm,-,N/A,Fog,Light Freezing Fog,0,2011-10-30 11:53:00
8:19 AM,28.4,26.6,93,30.27,5.0,Calm,Calm,-,N/A,,Scattered Clouds,0,2011-10-30 12:19:00
8:53 AM,30.0,28.9,96,30.29,6.0,Calm,Calm,-,N/A,,Scattered Clouds,0,2011-10-30 12:53:00
9:53 AM,35.1,32.0,89,30.32,10.0,Calm,Calm,-,N/A,,Clear,0,2011-10-30 13:53:00
10:53 AM,42.1,35.1,76,30.31,10.0,Calm,Calm,-,N/A,,Clear,0,2011-10-30 14:53:00
11:53 AM,48.0,36.0,63,30.30,10.0,Variable,3.5,-,N/A,,Clear,0,2011-10-30 15:53:00
12:53 PM,51.1,32.0,48,30.29,10.0,Calm,Calm,-,N/A,,Clear,0,2011-10-30 16:53:00
1:53 PM,54.0,30.9,41,30.25,10.0,South,9.2,-,N/A,,Clear,180,2011-10-30 17:53:00
2:53 PM,55.0,28.0,35,30.23,10.0,SSW,3.5,-,N/A,,Clear,200,2011-10-30 18:53:00
3:53 PM,55.9,27.0,33,30.20,10.0,Calm,Calm,-,N/A,,Partly Cloudy,0,2011-10-30 19:53:00
4:53 PM,55.9,27.0,33,30.19,10.0,Calm,Calm,-,N/A,,Partly Cloudy,0,2011-10-30 20:53:00
5:53 PM,54.0,27.0,35,30.18,10.0,Calm,Calm,-,N/A,,Partly Cloudy,0,2011-10-30 21:53:00
6:53 PM,48.9,30.0,48,30.19,10.0,Calm,Calm,-,N/A,,Partly Cloudy,0,2011-10-30 22:53:00
7:53 PM,43.0,30.0,60,30.21,10.0,Calm,Calm,-,N/A,,Clear,0,2011-10-30 23:53:00
8:53 PM,37.9,30.9,76,30.22,10.0,Calm,Calm,-,N/A,,Clear,0,2011-10-31 00:53:00
9:53 PM,37.0,28.9,73,30.22,10.0,Calm,Calm,-,N/A,,Clear,0,2011-10-31 01:53:00
10:53 PM,37.0,30.0,76,30.23,10.0,Calm,Calm,-,N/A,,Clear,0,2011-10-31 02:53:00
11:53 PM,36.0,30.0,79,30.22,10.0,Calm,Calm,-,N/A,,Clear,0,2011-10-31 03:53:00